OPS 4682 DEB, 38372

Orbit data source: Space-Track

OPS 4682 DEB, 38372 is space debris in LEO originally from a launch on Sat, 03 Apr 1965 UTC launched from the Air Force Western Test Range (AFWTR). Debris objects in space refer to the collection of defunct objects orbiting the Earth. Examples of debris include non-operational satellites, rocket bodies, and fragments generated from explosions, collisions, or faulty payload assembly.

Loading next visibility...
Identifier
38372, 1965-027BZ
Orbit
LEO
Country
Flag of USUS
Related business
Manufacturer
Unknown
Mission
Spacecraft
Bus & Motor
Unknown
Mass
Unknown
Launch date (UTC)
1965-04-03 (61 years ago)
Launch vehicle
Unknown
Launch site
Air Force Western Test Range (AFWTR)
Object type
Payload
Rocket body
Debris
Shape & HBR
Unknown shape, 0.1 m
Radar Cross Section
Small (<0.1 m²)

Expand to show TLE details & history
Last TLE update: 4 days ago

TLE from 4 days ago
0 OPS 4682 DEB
1 38372U 65027BZ  25290.58589813  .00000781  00000-0  26485-2 0  9991
2 38372  90.3033  33.1753 0029632 314.2452  45.6236 12.97819227632003
Epoch: 2025-10-17T14:03Z
TLE epoch observation values (Epoch: 2025-10-17T14:03:41.598Z)
Latitude
-0.00009°
Longitude
155.92283°
Altitude
1,257.704 km
Speed
7.234 km/s
True Right ascension
02h 12m 42s
True Declination
0° 00' 00"
Sunlit
Object was in full shadow at epoch
Visualization orbit readout
Latitude
Unknown
Longitude
Unknown
Altitude
Unknown
Speed
Unknown
Apparent Right ascension
Unknown
Apparent Declination
Unknown
Sunlit
N/A
Visualization observer readout
Local Sidereal Time
12:23:59
Azimuth
Unknown
Elevation
Unknown
Doppler factor
Unknown
Orbital elements
Apogee altitude
1,290.43 km
Perigee altitude
1,245.117 km
Semi-major axis
7,645.91 km
Eccentricity
0.00296
Inclination
90.3033°
RAAN
33.1753°
Arg. of periapsis
314.2452°
True anomaly
45.86693°
Mean anomaly
45.6236°
Eccentric anomaly
45.7452°
Mean motion
3.24638 °/min
Orbital period
110.89 mins
BSTAR
0.0026485
Loading maneuver chart data...
Computing Atmospheric mass density...
Loading historical data...
Loading historical data...
Loading historical data...
Loading historical data...
Loading historical data...
Loading historical data...
Loading historical data...

Documentation

Showing up to 5 results
|